Station OLCN6 - Olcott Harbor, NY Image indicating link to RSS feed of recent meteorological observations for station OLCN6


Conditions at OLCN6 as of
(10:00 pm EDT on 05/29/2024)
0200 GMT on 05/30/2024:
     

Click on the graph icon in the table below to see a time series plot of the last five days of that observation.

5-day plot - Wind Direction Wind Direction (WDIR):NNW ( 330 deg true )
5-day plot - Wind Speed Wind Speed (WSPD): 17.1 kts
5-day plot - Wind Gust Wind Gust (GST): 21.0 kts
5-day plot - Atmospheric Pressure Atmospheric Pressure (PRES):30.04 in
5-day plot - Pressure Tendency Pressure Tendency (PTDY):+0.02 in ( Rising )
5-day plot - Air Temperature Air Temperature (ATMP): 59.9 °F
5-day plot - Wind Speed at 10 Meters Wind Speed at 10 meters (WSPD10M): 17.5 kts
5-day plot - Wind Speed at 20 Meters Wind Speed at 20 meters (WSPD20M): 17.5 kts
5-day plot -  Wind Speed, Wind Gust and Atmospheric Pressure Combined plot of Wind Speed, Gust, and Air Pressure
Previous observations
TIME
(EDT)
5-day plot - Wind Direction
WDIR
 
5-day plot - Wind Speed
WSPD
kts
5-day plot - Wind Gust
GST
kts
5-day plot - Wave Height
WVHT
ft
5-day plot - Dominant Wave Period
DPD
sec
5-day plot - Average Wave Period
APD
sec
5-day plot - Mean Wave Direction
MWD
 
5-day plot - Atmospheric Pressure
PRES
in
5-day plot - Pressure Tendency
PTDY
in
5-day plot - Air Temperature
ATMP
°F
5-day plot - Water Temperature
WTMP
°F
5-day plot - Dew Point
DEWP
°F
5-day plot - Salinity
SAL
psu
5-day plot - Visibility
VIS
nmi
5-day plot - Tide (above MLLW)
TIDE
ft
2024-05-29 09:50 pmNNW 17.1 20.0----30.04- 60.4-----
2024-05-29 09:40 pm NW 15.0 17.1----30.04- 61.2-----
2024-05-29 09:30 pm NW 14.0 15.9----30.03- 62.2-----
2024-05-29 09:20 pmWNW 9.9 12.0----30.03- 62.1-----
2024-05-29 09:10 pmWNW 8.9 12.0----30.03- 61.9-----
2024-05-29 09:00 pm W 8.9 11.1----30.03+0.01 61.9-----
2024-05-29 08:50 pm W 8.9 11.1----30.03- 62.1-----
2024-05-29 08:40 pm W 8.9 9.9----30.03- 62.1-----
2024-05-29 08:30 pm W 8.9 11.1----30.03- 62.2-----
2024-05-29 08:20 pm W 8.9 9.9----30.03- 62.6-----
2024-05-29 08:10 pm W 8.9 9.9----30.03- 62.8-----
2024-05-29 08:00 pm W 8.9 9.9----30.03+0.02 62.8-----
2024-05-29 07:50 pm W 8.9 8.9----30.02- 62.8-----
2024-05-29 07:40 pm W 8.0 8.9----30.02- 62.6-----
2024-05-29 07:30 pm W 8.0 8.9----30.02- 62.4-----
2024-05-29 07:20 pm W 8.0 8.9----30.02- 62.2-----
2024-05-29 07:10 pm W 8.0 8.9----30.02- 62.4-----
2024-05-29 07:00 pm W 7.0 8.0----30.02+0.01 62.4-----
2024-05-29 06:50 pm W 7.0 8.0----30.02- 62.8-----
2024-05-29 06:40 pm W 7.0 8.0----30.02- 62.8-----
2024-05-29 06:30 pm W 7.0 7.0----30.01- 62.8-----
2024-05-29 06:20 pm W 6.0 7.0----30.02- 62.8-----
2024-05-29 06:10 pm W 6.0 7.0----30.02- 62.6-----
2024-05-29 06:00 pm W 5.1 8.0----30.02+0.01 62.2-----
2024-05-29 05:50 pm W 6.0 8.0----30.02- 62.2-----
2024-05-29 05:40 pmWNW 5.1 7.0----30.02- 62.2-----
2024-05-29 05:30 pmWNW 5.1 7.0----30.02- 62.4-----
2024-05-29 05:20 pmWNW 6.0 7.0----30.02- 62.4-----
2024-05-29 05:10 pmWNW 5.1 6.0----30.02- 62.8-----
2024-05-29 05:00 pmWNW 5.1 7.0----30.01-0.01 63.0-----
2024-05-29 04:50 pmNNW 4.1 6.0----30.01- 63.0-----
2024-05-29 04:40 pmNNW 2.9 5.1----30.01- 62.6-----
2024-05-29 04:30 pmNNW 2.9 4.1----30.01- 63.1-----
2024-05-29 04:20 pm NW 1.0 4.1----30.01- 63.5-----
2024-05-29 04:10 pm- 0.0 1.9----30.01- 64.6-----
2024-05-29 04:00 pm NW 1.9 2.9----30.01-0.02 63.9-----
2024-05-29 03:50 pm N 1.9 2.9----30.01- 63.3-----
2024-05-29 03:40 pmNNW 1.9 1.9----30.01- 63.1-----
2024-05-29 03:30 pmNNW 1.9 1.9----30.01- 63.1-----
2024-05-29 03:20 pm N 1.9 1.9----30.01- 63.7-----
2024-05-29 03:10 pm N 1.9 1.9----30.01- 64.4-----
2024-05-29 03:00 pmENE 1.0 1.9----30.01-0.02 64.2-----
2024-05-29 02:50 pmNNE 1.9 2.9----30.01- 63.1-----
2024-05-29 02:40 pm- 0.0 2.9----30.01- 60.4-----
2024-05-29 02:30 pm NE 4.1 4.1----30.01- 60.1-----
2024-05-29 02:20 pm E 1.9 4.1----30.01- 59.2-----
2024-05-29 02:10 pm E 4.1 5.1----30.02- 58.3-----
2024-05-29 02:00 pmENE 4.1 5.1----30.02-0.01 58.1-----
2024-05-29 01:50 pmENE 2.9 5.1----30.02- 57.6-----
2024-05-29 01:40 pmENE 5.1 6.0----30.02- 57.2-----
2024-05-29 01:30 pmENE 5.1 8.0----30.03- 57.0-----
2024-05-29 01:20 pm NE 7.0 8.9----30.03- 56.7-----
2024-05-29 01:10 pm NE 8.0 11.1----30.02- 56.7-----
2024-05-29 01:00 pm NE 9.9 11.1----30.03+0.01 56.5-----
2024-05-29 12:50 pm NE 9.9 12.0----30.03- 56.5-----
2024-05-29 12:40 pm NE 9.9 12.0----30.03- 56.7-----
2024-05-29 12:30 pm NE 9.9 12.0----30.03- 56.8-----
2024-05-29 12:20 pm NE 9.9 12.0----30.03- 56.8-----
2024-05-29 12:10 pmENE 8.9 11.1----30.03- 56.8-----
2024-05-29 12:00 pm NE 9.9 12.0----30.03+0.03 56.8-----
2024-05-29 11:50 am NE 11.1 13.0----30.03- 56.8-----
2024-05-29 11:40 amENE 11.1 13.0----30.03- 56.7-----
2024-05-29 11:30 am NE 12.0 14.0----30.03- 56.5-----
2024-05-29 11:20 am NE 12.0 14.0----30.02- 56.8-----
2024-05-29 11:10 amENE 12.0 14.0----30.03- 56.8-----
2024-05-29 11:00 am NE 12.0 14.0----30.03+0.04 56.8-----
2024-05-29 10:50 amENE 12.0 14.0----30.03- 56.8-----
2024-05-29 10:40 amENE 13.0 14.0----30.02- 56.8-----
2024-05-29 10:30 amENE 14.0 15.0----30.02- 56.7-----
2024-05-29 10:20 amENE 13.0 15.9----30.02- 56.7-----
2024-05-29 10:10 amENE 14.0 15.9----30.02- 56.7-----
2024-05-29 10:00 amENE 14.0 15.9----30.02+0.04 56.7-----
2024-05-29 09:50 amENE 14.0 15.9----30.02- 56.8-----
2024-05-29 09:40 amENE 13.0 15.0----30.01- 56.8-----
2024-05-29 09:30 amENE 13.0 15.9----30.01- 57.0-----
2024-05-29 09:20 amENE 14.0 17.1----30.01- 56.8-----
2024-05-29 09:10 am NE 15.0 15.9----30.00- 57.0-----
2024-05-29 09:00 am NE 14.0 15.9----30.00+0.04 57.2-----
2024-05-29 08:50 am NE 15.0 17.1----30.00- 57.2-----
2024-05-29 08:40 am NE 15.0 17.1----30.00- 57.0-----
2024-05-29 08:30 am NE 15.0 17.1----30.00- 57.2-----
2024-05-29 08:20 am NE 15.0 15.9----30.00- 57.2-----
2024-05-29 08:10 am NE 8.0 11.1----30.00- 57.4-----
2024-05-29 08:00 am NE 11.1 13.0----29.99+0.04 57.9-----
2024-05-29 07:50 am NE 8.9 9.9----29.99- 57.9-----
2024-05-29 07:40 amENE 8.0 9.9----29.99- 58.1-----
2024-05-29 07:30 am NE 8.9 11.1----29.98- 58.1-----
2024-05-29 07:20 am NE 8.9 9.9----29.99- 58.5-----
2024-05-29 07:10 am NE 6.0 7.0----29.98- 58.5-----
2024-05-29 07:00 am NE 4.1 5.1----29.98+0.04 58.3-----
2024-05-29 06:50 amNNE 5.1 6.0----29.98- 58.1-----
2024-05-29 06:40 am N 4.1 5.1----29.98- 58.1-----
2024-05-29 06:30 amNNE 4.1 6.0----29.97- 58.3-----
2024-05-29 06:20 am NE 5.1 7.0----29.97- 58.1-----
2024-05-29 06:10 am NE 2.9 4.1----29.97- 57.9-----
2024-05-29 06:00 amENE 1.9 4.1----29.96+0.03 57.6-----
2024-05-29 05:50 am E 5.1 9.9----29.96- 57.9-----
2024-05-29 05:40 am NE 8.9 15.0----29.95- 57.9-----
2024-05-29 05:30 am NW 7.0 8.9----29.96- 57.6-----
2024-05-29 05:20 amSSW 2.9 6.0----29.96- 56.7-----
2024-05-29 05:10 amWSW 5.1 7.0----29.96- 57.0-----
2024-05-29 05:00 amWSW 2.9 5.1----29.95+0.02 56.8-----
2024-05-29 04:50 amWSW 4.1 4.1----29.94- 56.8-----
2024-05-29 04:40 am SW 2.9 5.1----29.94- 56.8-----
2024-05-29 04:30 am SW 5.1 7.0----29.94- 56.8-----
2024-05-29 04:20 am SW 4.1 6.0----29.94- 56.8-----
2024-05-29 04:10 am SW 5.1 6.0----29.94- 56.8-----
2024-05-29 04:00 amWSW 4.1 6.0----29.94+0.01 56.8-----
2024-05-29 03:50 am SW 4.1 7.0----29.94- 56.7-----
2024-05-29 03:40 am SW 4.1 6.0----29.93- 56.8-----
2024-05-29 03:30 amWSW 4.1 5.1----29.94- 56.8-----
2024-05-29 03:20 am SW 4.1 5.1----29.93- 56.7-----
2024-05-29 03:10 am SW 4.1 6.0----29.93- 56.7-----
2024-05-29 03:00 am SW 2.9 5.1----29.93-0.01 56.7-----
2024-05-29 02:50 am SW 4.1 7.0----29.93- 56.7-----
2024-05-29 02:40 amWSW 6.0 7.0----29.93- 56.7-----
2024-05-29 02:30 amWSW 4.1 6.0----29.93- 56.7-----
2024-05-29 02:20 am SW 4.1 7.0----29.93- 56.5-----
2024-05-29 02:10 am SW 5.1 6.0----29.93- 56.7-----
2024-05-29 02:00 am SW 5.1 8.0----29.93+0.00 56.8-----
2024-05-29 01:50 amWSW 6.0 8.0----29.93- 57.0-----
2024-05-29 01:40 amWSW 4.1 6.0----29.93- 57.2-----
2024-05-29 01:30 am SW 5.1 8.0----29.93- 57.6-----
2024-05-29 01:20 amWSW 5.1 7.0----29.93- 57.4-----
2024-05-29 01:10 am SW 4.1 6.0----29.93- 57.2-----
2024-05-29 01:00 amWSW 5.1 6.0----29.93+0.00 57.4-----
2024-05-29 12:50 amWSW 2.9 5.1----29.93- 57.6-----
2024-05-29 12:40 am SW 4.1 6.0----29.93- 57.6-----
2024-05-29 12:30 amSSW 5.1 7.0----29.93- 57.4-----
2024-05-29 12:20 amSSW 1.9 4.1----29.94- 57.9-----
2024-05-29 12:10 amWSW 2.9 6.0----29.94- 58.1-----
2024-05-29 12:00 amWSW 4.1 5.1----29.94+0.04 58.1-----
2024-05-28 11:50 pmWSW 2.9 5.1----29.94- 57.9-----
2024-05-28 11:40 pm SW 2.9 5.1----29.94- 58.1-----
2024-05-28 11:30 pm SW 4.1 6.0----29.93- 57.9-----
2024-05-28 11:20 pmSSW 5.1 8.0----29.93- 57.9-----
2024-05-28 11:10 pm SW 5.1 8.0----29.93- 58.1-----
2024-05-28 11:00 pmSSW 6.0 8.9----29.93+0.04 57.7-----
2024-05-28 10:50 pm S 5.1 8.0----29.93- 57.7-----
2024-05-28 10:40 pmSSW 5.1 8.9----29.93- 57.7-----
2024-05-28 10:30 pmSSW 5.1 8.0----29.93- 57.7-----
2024-05-28 10:20 pmSSW 5.1 8.0----29.93- 57.7-----
2024-05-28 10:10 pmSSW 5.1 7.0----29.93- 57.9-----
2024-05-28 10:00 pm S 5.1 6.0----29.93+0.06 58.1-----
2024-05-28 09:50 pm S 4.1 6.0----29.93- 58.3-----